SPACEBEE-80 (47710 NORAD) Tracking and Keplerian Element Data

This shows tracking and keplerian element data for the satellite.

Feedback or suggestion? Click here.




ElementValue
Catalog47710
NameSPACEBEE-80
Epoch Orbit615
Epoch Day99.7651679
Epoch Year2021
RAAN174.7068
Inclination97.4566
Eccentricity0.0011917
Argument of Perigee148.0981
Mean Anonmoly212.0979
Mean Motion15.21483237
Decay Rate4.488E-05
L11 47710U 21015M 21099.76516790 .00004488 00000-0 20234-3 0 9998
L22 47710 97.4566 174.7068 0011917 148.0981 212.0979 15.21483237 6159

Live tracking and technical data element details for SPACEBEE-80 (NORAD 47710). SPACEBEE-80 can be tracked NOW for your location showing map with azimuth and elevation plus other details from your city location.

Track the satellite on the map from your city or location and see movement details for azimuth, elevation, latitude, longitude, range, height, and movement on the map or in text.







IsCatalogInMostPopularTable: catalog: 47710, numindb: 8
Update: records affected: 1



GetName: 47710 SPACEBEE-80

Hit Count: updated at: Sat, 10 Apr 2021 18:54:14 GMT